Dublin, Ireland

4:22 PM IST on April 24, 2018 (GMT +0100)
Dublin International

Weather History for EIDW - January, 2014

Change the Weather History Date:

Wednesday, January 8, 2014

  Actual Average Record
Temperature  
Mean Temperature 43 °F -  
Max Temperature 45 °F 46 °F 55 °F (2007)
Min Temperature 41 °F 36 °F 27 °F (2018)
Degree Days  
Heating Degree Days 22    
Moisture  
Dew Point 41 °F    
Average Humidity 90    
Maximum Humidity 100    
Minimum Humidity 70    
Precipitation  
Precipitation 0.00 in 0.08 in - ()
Sea Level Pressure  
Sea Level Pressure 29.69 in    
Wind  
Wind Speed 13 mph ()    
Max Wind Speed 26 mph    
Max Gust Speed 39 mph    
Visibility 7.9 miles    
Events Rain    
Averages and records for this station are not official NWS values.
T = Trace of Precipitation, MM = Missing Value Source: Averaged Metar Reports

Daily Weather History Graph

Daily Weather History Graph

Search for Another Location

Airport or City:

Astronomy

Jan. 08, 2014 Rise Set
Actual Time 8:38 AM GMT 4:25 PM GMT
Civil Twilight 7:56 AM GMT 5:07 PM GMT
Nautical Twilight 7:11 AM GMT 5:52 PM GMT
Astronomical Twilight 6:29 AM GMT 6:34 PM GMT
Moon 11:41 AM GMT (1/8) 12:54 AM GMT (1/8)
Length of Visible Light 9h 11m
Length of Day
7h 47m
First Quarter, 53% of the Moon is Illuminated
Jan 8
First Quarter
Jan 16
Full
Jan 24
Last Quarter
Jan 30
New
Feb 6
First Quarter

Hourly Weather History & Observations

Time (GMT) Temp. Windchill Dew Point Humidity Pressure Visibility Wind Dir Wind Speed Gust Speed Precip Events Conditions
12:00 AM 47 °F - 40 °F 70% 29.51 in 16 mi SW 22.4 mph - - Rain Light Rain Showers
12:00 AM 46.4 °F 38.1 °F 41.0 °F 81% 29.47 in 6.2 mi SW 24.2 mph - N/A   Mostly Cloudy
12:30 AM 46.4 °F 38.3 °F 41.0 °F 81% 29.50 in 6.2 mi SW 23.0 mph - N/A   Mostly Cloudy
1:00 AM 46 °F - 40 °F 74% 29.52 in 16 mi SW 22.4 mph - - Rain Light Rain Showers
1:00 AM 46.4 °F 38.7 °F 41.0 °F 81% 29.50 in 6.2 mi SW 20.7 mph - N/A   Mostly Cloudy
1:30 AM 44.6 °F 35.5 °F 41.0 °F 87% 29.50 in 6.2 mi SW 25.3 mph 36.8 mph N/A Rain Light Rain Showers
2:00 AM 44 °F - 40 °F 80% 29.56 in 11 mi WSW 24.6 mph - - Rain Light Rain Showers
2:00 AM 44.6 °F 35.5 °F 39.2 °F 81% 29.53 in 6.2 mi WSW 25.3 mph - N/A   Mostly Cloudy
2:30 AM 44.6 °F 35.3 °F 41.0 °F 87% 29.56 in 6.2 mi WSW 26.5 mph 39.1 mph N/A   Mostly Cloudy
3:00 AM 45 °F - 41 °F 82% 29.60 in 11 mi WSW 22.4 mph - -   Partly Cloudy
3:00 AM 44.6 °F 35.9 °F 41.0 °F 87% 29.59 in 6.2 mi WSW 23.0 mph - N/A   Mostly Cloudy
3:30 AM 44.6 °F 36.4 °F 41.0 °F 87% 29.62 in 6.2 mi WSW 20.7 mph - N/A   Mostly Cloudy
4:00 AM 44 °F - 41 °F 87% 29.65 in 12 mi WSW 17.9 mph - - Rain Light Rain Showers
4:00 AM 44.6 °F 36.9 °F 41.0 °F 87% 29.62 in 6.2 mi WSW 18.4 mph - N/A   Scattered Clouds
4:30 AM 44.6 °F 36.9 °F 41.0 °F 87% 29.65 in 6.2 mi WSW 18.4 mph - N/A   Scattered Clouds
5:00 AM 44 °F - 41 °F 87% 29.68 in 12 mi WSW 15.7 mph - - Rain Light Rain Showers
5:00 AM 44.6 °F 37.4 °F 41.0 °F 87% 29.65 in 6.2 mi WSW 16.1 mph - N/A   Scattered Clouds
5:30 AM 42.8 °F 35.4 °F 41.0 °F 93% 29.68 in 6.2 mi WSW 15.0 mph - N/A   Scattered Clouds
6:00 AM 43 °F - 41 °F 89% 29.71 in 12 mi WSW 11.2 mph - -   Partly Cloudy
6:00 AM 42.8 °F 36.6 °F 41.0 °F 93% 29.68 in 6.2 mi WSW 11.5 mph - N/A   Scattered Clouds
6:30 AM 42.8 °F 37.0 °F 41.0 °F 93% 29.71 in 6.2 mi SW 10.4 mph - N/A   Scattered Clouds
7:00 AM 43 °F - 41 °F 90% 29.75 in 12 mi SW 11.2 mph - -   Mostly Cloudy
7:00 AM 42.8 °F 37.0 °F 41.0 °F 93% 29.71 in 6.2 mi SW 10.4 mph - N/A   Scattered Clouds
7:30 AM 42.8 °F 37.0 °F 41.0 °F 93% 29.74 in 6.2 mi SW 10.4 mph - N/A   Scattered Clouds
8:00 AM 42 °F - 41 °F 93% 29.77 in 19 mi SW 11.2 mph - -   Partly Cloudy
8:00 AM 42.8 °F 37.0 °F 41.0 °F 93% 29.74 in 6.2 mi SW 10.4 mph - N/A   Scattered Clouds
8:30 AM 41.0 °F 35.8 °F 39.2 °F 93% 29.77 in 6.2 mi SSW 8.1 mph - N/A   Partly Cloudy
9:00 AM 42 °F - 40 °F 89% 29.81 in 16 mi SSW 8.9 mph - -   Scattered Clouds
9:00 AM 41.0 °F 35.2 °F 39.2 °F 93% 29.80 in 6.2 mi SSW 9.2 mph - N/A   Partly Cloudy
9:30 AM 41.0 °F 36.4 °F 39.2 °F 93% 29.80 in 6.2 mi SSW 6.9 mph - N/A   Scattered Clouds
10:00 AM 42 °F - 40 °F 88% 29.83 in 19 mi SW 6.7 mph - -   Partly Cloudy
10:00 AM 41.0 °F 37.1 °F 39.2 °F 93% 29.80 in 6.2 mi SSW 5.8 mph - N/A   Scattered Clouds
10:30 AM 42.8 °F 38.6 °F 41.0 °F 93% 29.80 in 6.2 mi SW 6.9 mph - N/A   Scattered Clouds
11:00 AM 43 °F - 40 °F 87% 29.83 in 19 mi SSW 6.7 mph - -   Scattered Clouds
11:00 AM 42.8 °F 38.6 °F 41.0 °F 93% 29.80 in 6.2 mi SSW 6.9 mph - N/A   Scattered Clouds
11:30 AM 42.8 °F 39.3 °F 41.0 °F 93% 29.80 in 6.2 mi SSW 5.8 mph - N/A   Scattered Clouds
12:00 PM 44 °F - 41 °F 86% 29.83 in 19 mi SW 6.7 mph - -   Scattered Clouds
12:00 PM 44.6 °F 41.4 °F 41.0 °F 87% 29.80 in 6.2 mi SW 5.8 mph - N/A   Scattered Clouds
12:30 PM 44.6 °F 42.2 °F 41.0 °F 87% 29.80 in 6.2 mi South 4.6 mph - N/A   Mostly Cloudy
1:00 PM 45 °F - 42 °F 83% 29.81 in 25 mi South 2.2 mph - -   Scattered Clouds
1:00 PM 44.6 °F 43.1 °F 41.0 °F 87% 29.80 in 6.2 mi South 3.5 mph - N/A   Mostly Cloudy
1:30 PM 44.6 °F 43.1 °F 41.0 °F 87% 29.80 in 6.2 mi Variable 3.5 mph - N/A   Mostly Cloudy
2:00 PM 45 °F - 41 °F 82% 29.80 in 25 mi SSW 2.2 mph - -   Scattered Clouds
2:00 PM 44.6 °F - 41.0 °F 87% 29.77 in 6.2 mi Variable 2.3 mph - N/A   Mostly Cloudy
2:30 PM 44.6 °F - 41.0 °F 87% 29.77 in 6.2 mi Calm Calm - N/A   Mostly Cloudy
3:00 PM 44 °F - 41 °F 87% 29.79 in 25 mi East 4.5 mph - -   Mostly Cloudy
3:00 PM 44.6 °F 42.2 °F 41.0 °F 87% 29.77 in 6.2 mi East 4.6 mph - N/A   Mostly Cloudy
3:30 PM 42.8 °F 40.1 °F 41.0 °F 93% 29.74 in 6.2 mi NE 4.6 mph - N/A   Mostly Cloudy
4:00 PM 43 °F - 41 °F 92% 29.76 in 19 mi ENE 4.5 mph - -   Mostly Cloudy
4:00 PM 42.8 °F 41.1 °F 41.0 °F 93% 29.74 in 6.2 mi ENE 3.5 mph - N/A   Mostly Cloudy
4:30 PM 42.8 °F 39.3 °F 41.0 °F 93% 29.74 in 6.2 mi ENE 5.8 mph - N/A   Mostly Cloudy
5:00 PM 42 °F - 41 °F 93% 29.74 in 16 mi ENE 6.7 mph - -   Mostly Cloudy
5:00 PM 42.8 °F 39.3 °F 41.0 °F 93% 29.71 in 6.2 mi NE 5.8 mph - N/A   Mostly Cloudy
5:30 PM 42.8 °F 38.6 °F 41.0 °F 93% 29.71 in 6.2 mi NE 6.9 mph - N/A   Mostly Cloudy
6:00 PM 43 °F - 42 °F 92% 29.72 in 12 mi NE 6.7 mph - - Rain Light Rain
6:00 PM 42.8 °F 38.0 °F 41.0 °F 93% 29.68 in 6.2 mi ENE 8.1 mph - N/A Rain Light Rain
6:30 PM 42.8 °F 38.6 °F 42.8 °F 100% 29.68 in 6.2 mi NE 6.9 mph - N/A Rain Light Rain
7:00 PM 42 °F - 42 °F 99% 29.69 in 5 mi NNE 6.7 mph - - Rain Light Rain
7:00 PM 42.8 °F 38.6 °F 41.0 °F 93% 29.68 in 5.0 mi NE 6.9 mph - N/A Rain Light Rain
7:30 PM 42.8 °F 37.5 °F 42.8 °F 100% 29.65 in 6.2 mi SE 9.2 mph - N/A Rain Light Rain
8:00 PM 43 °F - 42 °F 92% 29.67 in 10 mi South 4.5 mph - - Rain Light Rain
8:00 PM 42.8 °F 40.1 °F 41.0 °F 93% 29.65 in 6.2 mi SSE 4.6 mph - N/A Rain Light Rain
8:30 PM 42.8 °F - 41.0 °F 93% 29.65 in 5.6 mi Variable 1.2 mph - N/A Rain Light Rain
9:00 PM 42 °F - 42 °F 98% 29.66 in 6 mi SE 2.2 mph - - Rain Light Rain
9:00 PM 42.8 °F - 41.0 °F 93% 29.65 in 5.6 mi SSE 2.3 mph - N/A Rain Light Rain
9:30 PM 42.8 °F 41.1 °F 41.0 °F 93% 29.65 in 3.1 mi Variable 3.5 mph - N/A Rain Light Rain
10:00 PM 42 °F - 41 °F 97% 29.66 in 3 mi NW 4.5 mph - - Rain Light Rain
10:00 PM 41.0 °F 38.0 °F 41.0 °F 100% 29.62 in 3.1 mi NW 4.6 mph - N/A Rain Light Rain
10:30 PM 41.0 °F 37.1 °F 41.0 °F 100% 29.62 in 3.1 mi NW 5.8 mph - N/A Rain Light Rain
11:00 PM 42 °F - 41 °F 96% 29.63 in 3 mi NW 6.7 mph - - Rain Light Rain
11:00 PM 41.0 °F 37.1 °F 41.0 °F 100% 29.62 in 3.1 mi NW 5.8 mph - N/A Rain Light Rain
11:30 PM 41.0 °F 36.4 °F 41.0 °F 100% 29.59 in 3.7 mi NNW 6.9 mph - N/A Rain Light Rain